Starlink 31542

operational
NORAD ID: 59194 Int'l Des: 2024-045 Owner: SPXS Country: US Constellation: starlink
LEOCIRCULAR

About Starlink 31542

Description loading...

Live Position

Loading 3D Globe...

Upcoming Passes

Altitude History

Altitude vs Time

uPlot chart will show altitude changes over time

Two-Line Element Set

1 59194U 24045S 25296.62493772 .00001134 00000-0 50695-4 0 9995
2 59194 43.0002 146.2229 0000955 274.9566 85.1176 15.27585640 92207
Epoch: Oct 23, 2025 • Age: 11 hours

Current Status

Altitude 482.2 km
Velocity 7.63 km/s
Sub-Earth Point 14.17°N, 95.39°E
Launch Date Mar 11, 2024
Age 1.6 years
Type internet

Technical Details

Classification Payload
Mass 730.00 kg
Dry Mass 700.00 kg
Total Mass 730.00 kg
Length 0.30 m
Diameter 4.10 m
Span 29.00 m
Shape Box + pan
Manufacturer SPXS
Bus Type Starlink V2M
Phase Status In Orbit
Owner/State SPXS/US

Large Constellations

Loading constellations...